TimeEDT,TemperatureF,Dew PointF,Humidity,Sea Level PressureIn,VisibilityMPH,Wind Direction,Wind SpeedMPH,Gust SpeedMPH,PrecipitationIn,Events,Conditions,WindDirDegrees,DateUTC
12:53 AM,66.9,66.0,97,29.89,6.0,Calm,Calm,-,N/A,,Clear,0,2013-06-03 04:53:00
1:53 AM,69.1,66.9,93,29.89,10.0,Calm,Calm,-,N/A,,Clear,0,2013-06-03 05:53:00
2:33 AM,69.8,66.2,88,29.94,10.0,Calm,Calm,-,N/A,,Partly Cloudy,0,2013-06-03 06:33:00
2:53 AM,69.1,66.9,93,29.89,10.0,Calm,Calm,-,N/A,,Clear,0,2013-06-03 06:53:00
3:18 AM,68.0,66.2,94,29.93,7.0,Calm,Calm,-,N/A,,Scattered Clouds,0,2013-06-03 07:18:00
3:26 AM,68.0,66.2,94,29.93,6.0,Calm,Calm,-,N/A,,Mostly Cloudy,0,2013-06-03 07:26:00
3:53 AM,68.0,66.9,96,29.89,7.0,Calm,Calm,-,N/A,,Overcast,0,2013-06-03 07:53:00
4:53 AM,69.1,68.0,96,29.88,6.0,Calm,Calm,-,N/A,,Overcast,0,2013-06-03 08:53:00
5:53 AM,68.0,66.9,96,29.88,7.0,Calm,Calm,-,0.00,,Overcast,0,2013-06-03 09:53:00
6:53 AM,68.0,66.9,96,29.89,7.0,Calm,Calm,-,N/A,,Overcast,0,2013-06-03 10:53:00
7:53 AM,69.1,68.0,96,29.91,3.0,Calm,Calm,-,N/A,,Overcast,0,2013-06-03 11:53:00
8:53 AM,71.1,69.1,93,29.92,6.0,Calm,Calm,-,N/A,,Overcast,0,2013-06-03 12:53:00
9:53 AM,71.1,68.0,90,29.94,8.0,North,4.6,-,N/A,,Overcast,350,2013-06-03 13:53:00
10:37 AM,71.6,69.8,94,29.98,9.0,North,5.8,-,N/A,,Mostly Cloudy,10,2013-06-03 14:37:00
10:53 AM,72.0,68.0,87,29.95,10.0,NW,5.8,-,N/A,,Mostly Cloudy,320,2013-06-03 14:53:00
11:53 AM,73.0,69.1,87,29.95,10.0,Calm,Calm,-,N/A,,Mostly Cloudy,0,2013-06-03 15:53:00
12:00 PM,73.4,69.8,88,29.98,10.0,Variable,3.5,-,N/A,,Mostly Cloudy,0,2013-06-03 16:00:00
12:49 PM,75.2,68.0,78,29.97,10.0,Variable,3.5,-,N/A,,Mostly Cloudy,0,2013-06-03 16:49:00
12:53 PM,75.9,68.0,76,29.93,10.0,West,9.2,-,N/A,,Mostly Cloudy,280,2013-06-03 16:53:00
1:01 PM,75.2,66.2,73,29.96,10.0,NW,8.1,-,N/A,,Mostly Cloudy,320,2013-06-03 17:01:00
1:53 PM,77.0,66.9,71,29.90,10.0,NW,10.4,-,N/A,,Scattered Clouds,320,2013-06-03 17:53:00
2:53 PM,84.0,64.9,53,29.87,10.0,NW,11.5,-,N/A,,Partly Cloudy,320,2013-06-03 18:53:00
3:53 PM,80.1,66.0,62,29.87,10.0,NW,8.1,-,N/A,,Partly Cloudy,310,2013-06-03 19:53:00
4:53 PM,82.9,64.9,54,29.86,10.0,NNW,8.1,-,N/A,,Scattered Clouds,330,2013-06-03 20:53:00
5:53 PM,84.0,63.0,49,29.85,10.0,NW,9.2,-,N/A,,Clear,320,2013-06-03 21:53:00
6:53 PM,81.0,63.0,54,29.85,10.0,North,8.1,-,N/A,,Clear,350,2013-06-03 22:53:00
7:53 PM,80.1,63.0,56,29.87,10.0,NNW,9.2,-,N/A,,Clear,340,2013-06-03 23:53:00
8:53 PM,75.9,64.0,67,29.89,10.0,North,5.8,-,N/A,,Mostly Cloudy,360,2013-06-04 00:53:00
9:53 PM,75.0,64.0,69,29.91,10.0,NNW,3.5,-,N/A,,Mostly Cloudy,340,2013-06-04 01:53:00
10:53 PM,72.0,64.0,76,29.94,10.0,Calm,Calm,-,N/A,,Partly Cloudy,0,2013-06-04 02:53:00
11:53 PM,70.0,66.0,87,29.95,10.0,Calm,Calm,-,N/A,,Mostly Cloudy,0,2013-06-04 03:53:00